SCP
-0 -0 -0 -0 -0 -0 -1 -1 -1 -1 -1 -1 -1 -0 -0 -0 -0 -0 -0 -0 -0 -0 -0 -0 -0 -0 -0 -0 -0 -0 0 0 -0 0 -0 -0 -0 -0 -0 -0 0 0 -0
-1 -1 -0 -0 -0 -0 -0 -0 -1 -1 -1 -1 -1 -0 -0 -0 -0 -0 -0 -0 -0 -0 -0 -0 -0 -0 -0 -0 -0 -0 0 0 -0 -0 -0 -0 -0 -0 0 0 -0 0 0
-1 -0 -0 -0 -0 -0 -0 -0 -0 -1 -1 -1 -1 -0 -0 -0 -0 -0 -0 -0 0 -0 -0 -0 -0 -0 -0 -0 -0 0 -0 -0 -0 0 -0 -0 -0 0 0 0 0 0 0
-0 -0 -0 -0 -0 -0 -0 -0 -0 -0 -0 -1 -1 -0 -0 -0 -0 -0 -0 -0 0 0 0 0 0 -0 -0 -0 -0 -0 -0 -0 0 0 0 -0 -0 0 0 0 0 0 0
-0 -0 -0 -0 -0 -0 -0 -0 -0 -0 -0 -0 -0 -0 -0 -0 -0 -0 -0 -0 0 -0 -0 -0 0 0 -0 -0 0 -0 -0 -0 0 0 -0 -0 -0 0 0 0 0 0 0
-0 -0 -0 -0 -0 -0 -0 -0 -0 -0 -0 -0 -0 -0 -0 -0 -0 -0 -0 -0 0 -0 0 0 0 -0 -0 0 0 0 -0 -0 -0 -0 -0 -0 -0 0 0 0 0 0 0
-0 -0 -0 -0 -0 -0 -0 -0 -0 -0 -0 -0 -0 -0 0 -0 -0 -0 -0 -0 -0 -0 -0 -0 -0 -0 -0 0 0 -0 -0 -0 -0 -0 -0 -0 0 0 0 0 0 0 0
0 0 0 -0 -0 -0 -0 -0 -0 -0 -0 -0 -0 -0 -0 -0 -0 0 0 0 0 0 0 -0 -0 -0 -0 -0 -0 -0 -0 -0 0 -0 -0 -0 0 0 0 0 0 0 0
0 0 0 -0 -0 -0 -0 0 -0 -0 -0 -0 -0 -0 -0 0 0 0 0 0 0 0 0 0 0 0 -0 0 -0 -0 -0 -0 -0 -0 -0 0 0 0 0 0 0 0 0
0 0 0 0 -0 -0 0 0 0 -0 -0 -0 -0 -0 0 0 0 0 0 0 0 0 0 0 0 0 0 0 0 0 0 -0 -0 -0 0 0 0 0 0 0 0 0 0
0 0 0 0 0 0 0 0 0 0 0 0 0 0 0 0 0 0 0 0 0 0 0 0 0 0 0 0 0 0 0 0 0 0 0 0 0 -0 0 0 0 0 0
0 0 0 0 0 0 0 0 0 0 0 0 0 0 0 0 0 0 0 0 0 0 0 0 0 0 0 0 0 0 0 0 0 0 0 0 0 0 0 0 0 1 1
-0 1 0 0 0 0 0 1 1 0 0 0 0 0 0 0 0 0 0 0 0 0 0 0 0 0 0 0 0 0 0 0 0 0 0 0 0 0 0 0 0 0 0
-0 -0 -0 0 0 1 1 1 1 1 1 1 0 0 0 0 0 0 0 0 0 0 0 0 0 0 0 0 0 0 0 0 0 0 0 0 0 0 0 0 0 1 1
-0 -0 -0 0 1 1 1 1 1 1 1 1 1 1 0 0 0 0 0 0 0 0 0 0 0 0 0 0 0 0 0 0 0 0 0 0 0 0 0 0 0 0 0
0 0 0 1 1 1 1 1 1 1 1 1 1 1 1 1 1 0 1 1 0 0 0 0 0 0 0 0 0 0 0 0 0 0 0 0 0 0 0 0 0 1 1
1 1 1 1 1 1 1 1 1 1 1 1 1 1 1 0 0 0 1 1 0 0 0 1 1 1 1 1 1 1 1 1 1 0 1 0 1 0 0 0 0 0 0
1 1 1 1 1 1 1 1 1 1 1 1 1 1 1 1 1 1 1 1 0 0 0 1 2 1 1 1 1 1 1 1 1 1 1 1 1 1 0 0 0 1 1
1 1 1 1 1 1 2 1 1 1 1 1 1 1 1 1 1 1 0 1 1 1 0 1 1 1 1 2 1 1 2 2 2 1 1 1 1 1 1 0 0 0 0
0 0 1 1 1 1 1 1 1 0 0 0 1 0 0 1 1 1 1 1 1 1 1 2 2 2 1 1 0 1 1 1 1 1 0 0 0 0 0 0 0 0 0
0 0 0 1 1 1 1 1 0 0 0 0 0 1 1 1 1 1 1 1 2 2 2 2 2 1 1 1 1 1 1 0 0 0 0 0 0 0 0 0 0 0 0
0 0 0 1 1 1 1 1 1 1 1 1 1 1 1 1 1 1 1 1 1 1 1 1 1 1 1 1 1 0 0 0 0 0 0 0 0 0 0 0 0 0 0
0 0 1 1 1 1 1 1 1 1 1 1 1 1 1 0 0 0 0 0 0 0 0 0 0 0 0 0 0 0 0 0 0 0 0 0 0 0 0 0 0 0 0
1 1 1 1 1 1 1 1 2 2 2 1 1 0 0 0 0 0 0 0 1 0 0 0 0 0 0 0 1 0 0 0 -0 0 0 0 0 0 0 0 0 0 0
0 0 0 0 0 1 1 1 1 1 1 1 0 0 0 0 0 0 0 0 1 1 0 0 0 0 0 0 0 0 0 0 0 0 0 0 0 0 -0 0 0 0 0
0 0 0 1 1 1 1 1 1 1 1 1 1 0 0 0 0 0 0 0 0 0 0 0 0 0 0 0 0 0 0 0 0 0 0 0 0 0 0 0 0 0 0
Wind_Speed_500mb
51 51 50 48 45 40 37 40 47 54 52 48 41 34 28 21 26 36 38 34 31 32 32 28 26 22 19 21 22 22 22 21 21 21 22 21 20 19 21 24 22 21 18
56 54 53 49 45 41 38 43 51 52 50 46 39 33 26 21 27 36 35 33 30 28 27 25 23 21 21 23 24 25 24 24 22 23 22 22 19 20 21 20 19 16 17
58 59 54 49 44 41 39 43 47 48 46 42 37 31 25 24 30 37 33 31 28 26 26 25 24 23 24 26 27 28 28 26 24 24 22 21 18 18 20 19 16 15 14
60 61 57 51 45 41 38 40 42 43 42 39 35 29 26 28 32 37 33 28 26 25 25 24 24 25 25 29 31 30 26 22 22 21 21 20 18 17 17 17 15 13 13
62 60 57 52 47 43 39 38 37 37 38 37 33 30 30 31 35 35 30 26 25 25 25 24 24 25 27 27 25 23 21 19 15 14 14 14 14 13 15 15 13 11 9
66 62 58 52 48 44 40 36 33 30 31 33 33 32 33 34 37 35 29 25 23 24 23 22 22 23 24 21 17 16 16 16 11 8 8 10 12 11 10 10 11 8 7
68 64 60 55 50 45 40 34 31 28 29 32 32 31 32 35 38 35 30 25 23 23 22 22 20 20 20 17 14 12 11 10 6 6 6 8 9 9 9 7 5 4 2
67 67 63 58 52 48 42 36 31 27 25 28 29 29 32 36 36 34 29 26 23 22 21 21 21 20 20 19 17 17 15 13 8 9 10 11 11 10 9 7 5 3 3
67 67 66 62 56 50 45 40 34 28 24 23 25 27 29 33 35 32 30 27 24 22 21 21 21 23 24 23 23 24 24 24 22 21 19 19 16 14 17 15 12 10 9
69 67 68 65 62 56 51 43 37 31 25 21 20 23 26 28 30 30 30 28 26 24 21 22 23 24 24 26 27 27 29 30 31 30 29 28 29 25 22 19 17 16 16
68 69 69 69 66 61 53 47 42 38 34 30 25 23 24 26 27 27 30 28 29 26 23 23 24 26 26 27 29 30 32 34 34 33 32 31 33 32 28 25 21 20 22
74 74 73 71 67 62 57 52 48 43 40 36 32 29 27 27 29 30 30 31 30 29 27 26 26 26 27 28 29 30 32 34 34 33 32 31 33 31 25 24 24 23 23
61 68 71 68 65 63 61 57 54 51 47 44 39 36 31 29 28 28 29 31 32 32 30 29 28 28 27 27 27 29 31 33 35 34 33 29 28 27 28 27 25 25 27
57 65 68 70 70 67 64 61 58 55 51 49 46 41 38 34 30 28 27 28 31 35 34 34 33 31 30 30 30 30 33 36 38 39 38 36 35 34 35 35 33 29 26
60 64 69 71 70 68 65 60 56 52 49 46 43 43 40 37 33 31 29 30 31 34 36 38 37 35 34 34 35 37 38 41 39 37 40 41 43 44 44 41 36 33 32
63 65 65 66 64 62 59 55 52 48 48 46 43 40 38 36 36 35 34 35 35 34 35 37 38 38 36 34 32 34 36 38 42 43 44 45 44 45 42 42 39 35 32
62 57 57 57 56 55 52 53 53 46 46 43 43 35 35 39 41 39 37 39 38 37 36 38 36 37 37 39 39 39 39 37 43 47 49 50 48 45 45 45 39 35 36
61 44 42 50 54 56 55 53 50 46 41 37 33 32 36 40 39 39 39 40 38 42 40 41 38 37 41 39 46 48 49 49 62 59 59 54 48 46 44 44 41 39 38
60 49 41 38 39 46 51 49 47 40 38 38 38 40 42 41 40 38 44 41 39 43 45 45 42 38 46 41 60 63 57 58 51 50 53 48 54 60 52 46 41 38 44
67 53 45 38 38 39 44 44 46 43 42 41 43 43 40 41 40 41 42 40 40 42 43 44 40 51 61 53 62 64 58 52 51 60 64 69 61 50 52 48 41 45 46
59 51 48 39 33 36 40 43 48 48 45 42 36 36 42 42 35 40 43 41 44 50 54 55 61 64 63 56 70 79 85 78 70 76 72 65 60 53 56 52 48 53 48
49 52 48 42 36 34 34 40 42 42 37 39 39 37 43 44 45 49 56 54 53 56 63 62 59 63 60 65 66 67 65 84 92 95 76 70 61 42 38 62 62 58 53
43 43 43 43 41 35 34 33 36 39 37 36 39 46 46 45 55 52 45 53 60 59 60 62 68 72 76 71 68 57 26 16 37 36 48 68 70 58 46 55 75 67 53
46 46 44 48 48 44 36 32 35 36 32 28 31 35 37 35 35 36 39 42 47 48 50 43 47 50 42 37 41 36 30 42 34 34 35 38 33 30 29 49 56 58 54
48 42 39 37 40 38 33 33 33 35 33 33 34 36 31 24 21 26 33 28 34 34 31 31 23 22 29 45 51 44 42 37 32 32 28 16 38 49 71 63 62 64 68
34 34 30 29 26 25 25 29 31 31 29 30 29 28 27 25 27 30 31 27 32 36 45 35 29 35 45 48 49 50 44 33 42 45 37 35 26 56 70 73 81 81 81
Wind_Direction_500mb
175 174 168 167 169 168 164 158 162 163 161 157 153 146 142 140 143 148 152 151 146 144 147 150 151 156 156 153 147 139 129 123 122 117 109 108 103 104 98 92 88 87 90
172 171 167 167 169 167 163 157 158 163 163 160 157 155 153 153 151 154 156 155 148 147 149 151 153 153 151 148 141 136 128 123 120 113 108 105 112 105 94 88 91 94 91
173 168 166 167 167 166 165 160 161 164 166 165 166 166 165 164 160 158 156 152 149 148 146 144 141 141 145 142 138 131 122 116 117 114 113 108 106 101 100 98 95 96 92
173 167 167 168 166 167 168 166 166 169 171 173 174 174 171 169 164 160 155 151 152 149 143 139 134 134 141 140 135 131 128 124 121 114 110 110 109 109 108 106 100 94 93
172 170 169 168 166 167 167 166 167 171 175 179 178 176 175 171 167 161 158 155 156 154 150 145 141 143 141 145 141 140 139 136 126 118 120 115 116 115 114 112 106 93 82
173 172 170 169 168 167 167 167 166 169 175 179 181 178 175 172 168 165 163 159 162 164 161 158 152 151 153 155 153 151 150 145 135 123 143 148 134 133 123 114 107 108 100
173 174 172 171 170 169 170 170 168 168 172 175 177 178 176 173 172 171 170 169 172 173 173 176 173 171 170 175 180 175 178 174 170 192 182 176 175 161 147 140 131 124 120
176 176 176 174 174 175 174 177 177 173 171 174 177 179 179 178 179 180 180 180 182 182 183 190 195 197 201 205 209 212 217 227 241 239 232 227 233 228 213 204 211 228 279
182 180 179 178 180 181 180 182 183 182 176 174 178 181 184 186 189 191 192 192 193 192 193 200 207 214 220 224 227 233 239 242 249 260 259 253 258 261 253 249 248 258 278
184 185 184 184 185 185 185 187 187 186 185 181 179 187 190 194 200 201 203 206 207 206 208 209 213 220 225 232 238 242 247 251 257 264 267 264 263 270 261 254 256 267 277
188 191 190 189 189 190 191 192 194 193 191 189 184 185 194 203 209 216 220 221 219 219 221 221 222 227 230 237 244 248 252 256 261 265 266 266 264 264 259 248 254 266 275
192 194 195 194 194 194 196 197 198 199 200 202 202 201 199 203 209 216 222 225 229 231 233 233 233 235 238 242 249 256 260 264 264 262 260 262 264 256 247 245 261 269 277
197 196 197 199 200 199 199 200 201 203 204 206 209 210 210 210 214 221 230 237 240 244 247 247 248 250 252 257 261 266 268 270 270 265 255 255 259 248 246 250 260 268 273
202 202 200 202 204 204 205 206 207 208 208 208 210 214 217 218 222 226 233 244 247 249 252 255 257 259 263 267 269 272 274 275 277 272 259 253 250 249 253 257 258 256 260
207 205 204 206 207 210 212 212 216 216 217 217 216 219 222 227 231 235 237 240 244 247 249 252 255 261 265 270 273 273 272 275 274 271 256 257 253 253 256 255 253 258 260
211 209 210 211 213 216 218 220 222 223 223 221 221 221 225 233 237 239 242 245 241 241 241 242 248 254 258 262 270 278 280 285 274 268 267 265 256 252 250 258 258 259 263
210 212 216 219 220 220 222 226 225 225 226 230 223 217 227 233 236 241 245 248 248 242 240 238 243 248 254 254 257 258 266 278 280 270 268 269 267 259 264 266 258 255 267
209 206 225 224 227 222 223 226 224 225 229 231 227 230 231 235 240 248 252 254 258 251 240 240 233 239 248 260 271 268 261 264 280 277 274 272 272 269 271 259 254 264 276
214 235 227 215 211 220 226 228 227 227 232 232 229 227 230 238 240 247 261 264 253 253 251 241 243 246 251 247 268 273 271 264 258 272 269 262 281 273 264 261 266 274 276
226 231 228 232 231 225 225 227 226 228 232 232 231 230 234 242 249 253 256 259 261 262 257 258 255 262 262 268 275 271 270 268 264 257 263 275 278 282 274 269 260 262 261
221 229 232 233 225 215 217 219 226 230 230 232 232 231 239 247 251 262 262 262 265 265 268 271 269 268 274 280 283 277 276 272 274 266 261 277 265 270 268 266 261 260 256
220 228 236 232 221 217 221 226 231 237 243 243 238 244 265 256 266 266 272 270 263 262 265 266 268 274 277 282 279 278 287 277 287 259 262 269 259 248 265 269 263 253 249
229 230 230 230 224 230 243 237 239 243 253 256 251 264 271 270 282 277 277 275 283 280 274 271 269 279 285 282 280 279 281 286 301 286 278 260 260 244 268 268 266 251 251
223 230 234 234 232 241 251 241 242 245 248 255 262 274 280 275 276 278 278 282 282 283 287 286 285 282 281 272 273 269 272 273 287 281 273 252 230 257 281 279 265 243 250
227 229 233 240 242 248 245 237 240 249 252 260 275 280 278 271 282 283 289 279 284 280 273 298 293 292 278 274 281 272 279 262 250 242 268 293 250 243 269 271 259 259 262
227 229 230 230 228 229 228 238 242 256 268 267 266 273 270 273 290 296 293 288 285 279 277 283 273 275 270 271 274 271 265 249 253 246 256 270 242 270 274 274 265 266 268
Wind_Speed_850mb
51 51 50 48 45 40 37 40 47 54 52 48 41 34 28 21 26 36 38 34 31 32 32 28 26 22 19 21 22 22 22 21 21 21 22 21 20 19 21 24 22 21 18
56 54 53 49 45 41 38 43 51 52 50 46 39 33 26 21 27 36 35 33 30 28 27 25 23 21 21 23 24 25 24 24 22 23 22 22 19 20 21 20 19 16 17
58 59 54 49 44 41 39 43 47 48 46 42 37 31 25 24 30 37 33 31 28 26 26 25 24 23 24 26 27 28 28 26 24 24 22 21 18 18 20 19 16 15 14
60 61 57 51 45 41 38 40 42 43 42 39 35 29 26 28 32 37 33 28 26 25 25 24 24 25 25 29 31 30 26 22 22 21 21 20 18 17 17 17 15 13 13
62 60 57 52 47 43 39 38 37 37 38 37 33 30 30 31 35 35 30 26 25 25 25 24 24 25 27 27 25 23 21 19 15 14 14 14 14 13 15 15 13 11 9
66 62 58 52 48 44 40 36 33 30 31 33 33 32 33 34 37 35 29 25 23 24 23 22 22 23 24 21 17 16 16 16 11 8 8 10 12 11 10 10 11 8 7
68 64 60 55 50 45 40 34 31 28 29 32 32 31 32 35 38 35 30 25 23 23 22 22 20 20 20 17 14 12 11 10 6 6 6 8 9 9 9 7 5 4 2
67 67 63 58 52 48 42 36 31 27 25 28 29 29 32 36 36 34 29 26 23 22 21 21 21 20 20 19 17 17 15 13 8 9 10 11 11 10 9 7 5 3 3
67 67 66 62 56 50 45 40 34 28 24 23 25 27 29 33 35 32 30 27 24 22 21 21 21 23 24 23 23 24 24 24 22 21 19 19 16 14 17 15 12 10 9
69 67 68 65 62 56 51 43 37 31 25 21 20 23 26 28 30 30 30 28 26 24 21 22 23 24 24 26 27 27 29 30 31 30 29 28 29 25 22 19 17 16 16
68 69 69 69 66 61 53 47 42 38 34 30 25 23 24 26 27 27 30 28 29 26 23 23 24 26 26 27 29 30 32 34 34 33 32 31 33 32 28 25 21 20 22
74 74 73 71 67 62 57 52 48 43 40 36 32 29 27 27 29 30 30 31 30 29 27 26 26 26 27 28 29 30 32 34 34 33 32 31 33 31 25 24 24 23 23
61 68 71 68 65 63 61 57 54 51 47 44 39 36 31 29 28 28 29 31 32 32 30 29 28 28 27 27 27 29 31 33 35 34 33 29 28 27 28 27 25 25 27
57 65 68 70 70 67 64 61 58 55 51 49 46 41 38 34 30 28 27 28 31 35 34 34 33 31 30 30 30 30 33 36 38 39 38 36 35 34 35 35 33 29 26
60 64 69 71 70 68 65 60 56 52 49 46 43 43 40 37 33 31 29 30 31 34 36 38 37 35 34 34 35 37 38 41 39 37 40 41 43 44 44 41 36 33 32
63 65 65 66 64 62 59 55 52 48 48 46 43 40 38 36 36 35 34 35 35 34 35 37 38 38 36 34 32 34 36 38 42 43 44 45 44 45 42 42 39 35 32
62 57 57 57 56 55 52 53 53 46 46 43 43 35 35 39 41 39 37 39 38 37 36 38 36 37 37 39 39 39 39 37 43 47 49 50 48 45 45 45 39 35 36
61 44 42 50 54 56 55 53 50 46 41 37 33 32 36 40 39 39 39 40 38 42 40 41 38 37 41 39 46 48 49 49 62 59 59 54 48 46 44 44 41 39 38
60 49 41 38 39 46 51 49 47 40 38 38 38 40 42 41 40 38 44 41 39 43 45 45 42 38 46 41 60 63 57 58 51 50 53 48 54 60 52 46 41 38 44
67 53 45 38 38 39 44 44 46 43 42 41 43 43 40 41 40 41 42 40 40 42 43 44 40 51 61 53 62 64 58 52 51 60 64 69 61 50 52 48 41 45 46
59 51 48 39 33 36 40 43 48 48 45 42 36 36 42 42 35 40 43 41 44 50 54 55 61 64 63 56 70 79 85 78 70 76 72 65 60 53 56 52 48 53 48
49 52 48 42 36 34 34 40 42 42 37 39 39 37 43 44 45 49 56 54 53 56 63 62 59 63 60 65 66 67 65 84 92 95 76 70 61 42 38 62 62 58 53
43 43 43 43 41 35 34 33 36 39 37 36 39 46 46 45 55 52 45 53 60 59 60 62 68 72 76 71 68 57 26 16 37 36 48 68 70 58 46 55 75 67 53
46 46 44 48 48 44 36 32 35 36 32 28 31 35 37 35 35 36 39 42 47 48 50 43 47 50 42 37 41 36 30 42 34 34 35 38 33 30 29 49 56 58 54
48 42 39 37 40 38 33 33 33 35 33 33 34 36 31 24 21 26 33 28 34 34 31 31 23 22 29 45 51 44 42 37 32 32 28 16 38 49 71 63 62 64 68
34 34 30 29 26 25 25 29 31 31 29 30 29 28 27 25 27 30 31 27 32 36 45 35 29 35 45 48 49 50 44 33 42 45 37 35 26 56 70 73 81 81 81
Wind_Direction_850mb
175 174 168 167 169 168 164 158 162 163 161 157 153 146 142 140 143 148 152 151 146 144 147 150 151 156 156 153 147 139 129 123 122 117 109 108 103 104 98 92 88 87 90
172 171 167 167 169 167 163 157 158 163 163 160 157 155 153 153 151 154 156 155 148 147 149 151 153 153 151 148 141 136 128 123 120 113 108 105 112 105 94 88 91 94 91
173 168 166 167 167 166 165 160 161 164 166 165 166 166 165 164 160 158 156 152 149 148 146 144 141 141 145 142 138 131 122 116 117 114 113 108 106 101 100 98 95 96 92
173 167 167 168 166 167 168 166 166 169 171 173 174 174 171 169 164 160 155 151 152 149 143 139 134 134 141 140 135 131 128 124 121 114 110 110 109 109 108 106 100 94 93
172 170 169 168 166 167 167 166 167 171 175 179 178 176 175 171 167 161 158 155 156 154 150 145 141 143 141 145 141 140 139 136 126 118 120 115 116 115 114 112 106 93 82
173 172 170 169 168 167 167 167 166 169 175 179 181 178 175 172 168 165 163 159 162 164 161 158 152 151 153 155 153 151 150 145 135 123 143 148 134 133 123 114 107 108 100
173 174 172 171 170 169 170 170 168 168 172 175 177 178 176 173 172 171 170 169 172 173 173 176 173 171 170 175 180 175 178 174 170 192 182 176 175 161 147 140 131 124 120
176 176 176 174 174 175 174 177 177 173 171 174 177 179 179 178 179 180 180 180 182 182 183 190 195 197 201 205 209 212 217 227 241 239 232 227 233 228 213 204 211 228 279
182 180 179 178 180 181 180 182 183 182 176 174 178 181 184 186 189 191 192 192 193 192 193 200 207 214 220 224 227 233 239 242 249 260 259 253 258 261 253 249 248 258 278
184 185 184 184 185 185 185 187 187 186 185 181 179 187 190 194 200 201 203 206 207 206 208 209 213 220 225 232 238 242 247 251 257 264 267 264 263 270 261 254 256 267 277
188 191 190 189 189 190 191 192 194 193 191 189 184 185 194 203 209 216 220 221 219 219 221 221 222 227 230 237 244 248 252 256 261 265 266 266 264 264 259 248 254 266 275
192 194 195 194 194 194 196 197 198 199 200 202 202 201 199 203 209 216 222 225 229 231 233 233 233 235 238 242 249 256 260 264 264 262 260 262 264 256 247 245 261 269 277
197 196 197 199 200 199 199 200 201 203 204 206 209 210 210 210 214 221 230 237 240 244 247 247 248 250 252 257 261 266 268 270 270 265 255 255 259 248 246 250 260 268 273
202 202 200 202 204 204 205 206 207 208 208 208 210 214 217 218 222 226 233 244 247 249 252 255 257 259 263 267 269 272 274 275 277 272 259 253 250 249 253 257 258 256 260
207 205 204 206 207 210 212 212 216 216 217 217 216 219 222 227 231 235 237 240 244 247 249 252 255 261 265 270 273 273 272 275 274 271 256 257 253 253 256 255 253 258 260
211 209 210 211 213 216 218 220 222 223 223 221 221 221 225 233 237 239 242 245 241 241 241 242 248 254 258 262 270 278 280 285 274 268 267 265 256 252 250 258 258 259 263
210 212 216 219 220 220 222 226 225 225 226 230 223 217 227 233 236 241 245 248 248 242 240 238 243 248 254 254 257 258 266 278 280 270 268 269 267 259 264 266 258 255 267
209 206 225 224 227 222 223 226 224 225 229 231 227 230 231 235 240 248 252 254 258 251 240 240 233 239 248 260 271 268 261 264 280 277 274 272 272 269 271 259 254 264 276
214 235 227 215 211 220 226 228 227 227 232 232 229 227 230 238 240 247 261 264 253 253 251 241 243 246 251 247 268 273 271 264 258 272 269 262 281 273 264 261 266 274 276
226 231 228 232 231 225 225 227 226 228 232 232 231 230 234 242 249 253 256 259 261 262 257 258 255 262 262 268 275 271 270 268 264 257 263 275 278 282 274 269 260 262 261
221 229 232 233 225 215 217 219 226 230 230 232 232 231 239 247 251 262 262 262 265 265 268 271 269 268 274 280 283 277 276 272 274 266 261 277 265 270 268 266 261 260 256
220 228 236 232 221 217 221 226 231 237 243 243 238 244 265 256 266 266 272 270 263 262 265 266 268 274 277 282 279 278 287 277 287 259 262 269 259 248 265 269 263 253 249
229 230 230 230 224 230 243 237 239 243 253 256 251 264 271 270 282 277 277 275 283 280 274 271 269 279 285 282 280 279 281 286 301 286 278 260 260 244 268 268 266 251 251
223 230 234 234 232 241 251 241 242 245 248 255 262 274 280 275 276 278 278 282 282 283 287 286 285 282 281 272 273 269 272 273 287 281 273 252 230 257 281 279 265 243 250
227 229 233 240 242 248 245 237 240 249 252 260 275 280 278 271 282 283 289 279 284 280 273 298 293 292 278 274 281 272 279 262 250 242 268 293 250 243 269 271 259 259 262
227 229 230 230 228 229 228 238 242 256 268 267 266 273 270 273 290 296 293 288 285 279 277 283 273 275 270 271 274 271 265 249 253 246 256 270 242 270 274 274 265 266 268